Location: Ostrava
(49.8330°N, 18.2830°E)
Time: 19:22:15
(UTC+01:00)

Tiangong - Visible Passes

Search period start: 25 January 2022 00:00
Search period end: 04 February 2022 00:00
Orbit: 382 x 386 km, 41.5° (Epoch: 25 January)

Date Brightness Start Highest point End Pass type
(mag) Time Alt. Az. Time Alt. Az. Time Alt. Az.
28 Jan 3.8 18:27:51 10° S 18:28:04 10° SSE 18:28:04 10° SSE visible
29 Jan 3.9 19:02:52 10° SSW 19:03:26 12° SSW 19:03:26 12° SSW visible
30 Jan 3.5 18:03:41 10° SSW 18:05:21 14° SSE 18:06:32 12° SE visible
31 Jan 3.2 18:39:36 10° SW 18:41:47 18° S 18:41:47 18° S visible
01 Feb 3.4 17:40:07 10° SSW 17:42:12 16° S 17:44:17 10° SE visible
01 Feb 3.9 19:16:12 10° SW 19:17:01 14° SW 19:17:01 14° SW visible
02 Feb 3.3 18:16:24 10° SW 18:18:41 18° S 18:20:03 14° SSE visible
03 Feb 3.4 17:16:43 10° SW 17:18:58 18° S 17:21:13 10° SE visible
03 Feb 3.6 18:53:15 10° SW 18:55:07 15° SSW 18:55:18 15° S visible
